Location: Nelson
(41.2830°S, 173.2830°E)
Time: 05:44:25
(UTC+12:00)

BREEZE-M DEB (TANK) - Visible Passes

Search period start: 26 April 2019 00:00
Search period end: 06 May 2019 00:00
Orbit: 291 x 13993 km, 46.1° (Epoch: 24 April)

Date Brightness Start Highest point End Pass type
(mag) Time Alt. Az. Time Alt. Az. Time Alt. Az.
26 Apr 9.7 02:28:33 10° NE 03:19:07 18° ENE 03:48:42 10° ESE visible
26 Apr 7.9 06:19:35 10° NNW 08:13:32 75° NE 08:36:15 10° ESE visible
27 Apr 9.0 03:53:42 10° N 05:36:53 47° ENE 06:11:52 10° ESE visible
28 Apr 9.6 02:13:27 10° NE 03:06:02 18° ENE 03:36:44 10° ESE visible
28 Apr 8.0 06:05:00 10° NNW 08:00:38 76° NE 08:24:12 10° ESE visible
29 Apr 9.0 03:39:22 10° N 05:23:35 47° ENE 05:59:41 10° ESE visible
30 Apr 9.6 01:58:23 10° NE 02:52:50 19° E 03:24:36 10° ESE visible
30 Apr 8.1 05:50:25 10° NNW 07:47:36 76° NE 08:12:03 10° ESE visible
01 May 9.0 03:25:03 10° N 05:10:07 48° ENE 05:47:23 10° ESE visible
02 May 9.6 01:43:23 10° NE 02:39:31 19° E 03:12:20 10° ESE visible
02 May 8.1 05:35:49 10° NNW 07:34:27 77° NE 07:59:49 10° ESE visible
03 May 9.0 03:10:43 10° N 04:56:32 48° ENE 05:35:01 10° ESE visible
04 May 9.5 01:28:25 10° NE 02:26:05 19° E 02:59:56 10° ESE visible
04 May 8.2 05:21:13 10° NNW 07:21:08 77° NE 07:47:30 10° ESE visible
05 May 9.0 02:56:24 10° N 04:42:47 49° ENE 05:22:31 10° ESE visible
